Aérodrome :
LOGIN :

S'inscrire | Disclaimer

   EN    FR    IT 

 










Légende :    VFR   VFR Marginal   IFR   IFR Intensif   IFR Très Intensif
Visi : 
Plafond : 
>= 8 km
>= 3000ft
5 à 8 km
1000 à 3000 ft
1500m à 5 km
500 à 1000 ft
800 à 1500m
200 à 500 ft
< 800m
< 200 ft
Symboles :   Orages  Brouillard  Fortes neiges  Fortes précipitations  Vent > 20 kt
SIGMETs :   Divers  Orages  Givrage  Turbulence  Onde Orograph.  Cendres Volcan.







- Altitude de l'aérodrome : 1302 ft
- Code IATA : GNB
- Voir les cartes d'approche


LFLS - Grenoble / St. Geoirs

DERNIER METAR :
  • 230230Z AUTO 09003KT 9000 BKN043 BKN052 BKN100 15/14 Q1019

METARs EXPIRÉS :
  • 230200Z AUTO 09005KT 7000 NSC 15/14 Q1019
  • 230130Z AUTO 10006KT 6000 NSC 16/14 Q1019
  • 230100Z AUTO 10005KT 8000 NSC 16/15 Q1019
  • 230030Z AUTO 07004KT 7000 NSC 16/15 Q1019
  • 230000Z AUTO 08004KT 8000 NSC 16/15 Q1019

TAF TAF LFLS
Valide du 23 à 03h jusqu'au 24 à 03h UTC


230200Z 2303/2403 04005KT CAVOK
TEMPO 2303/2309 BKN020
ATIS : +33 4 76 65 55 89
Pas de NOTAMs connus pour ce terrain.



MET'MAP, la Météo Aéronautique d'un coup d'oeil ! - Copyright ORBIFLY Décembre 2007 - Disclaimer

ORBIFLY MET'MAP TEAM :

Programmation & Développement : Alexandra Zaïnal
Conception & Développement : Baudouin d'Aumeries
Co-Programmation & Développement : Marc-Olivier Méhu
Soutien technique & logistique : Manuel Goepfert

Contact : metmap@orbifly.com




SOURCES & CREDITS :

   NOAA